This is the latest recevied weather packets stored in our database for station/object 9W2CHF-4. If no packets are shown the sender has not sent any weather packets the latest 10 day(s).
| Time | Temp. | Humidity | Pressure | Rain* | Wind** | Luminosity | Snow |
|---|---|---|---|---|---|---|---|
| 1777630101 | 34.44° C | 73% | 1008.5 hPa | - | - | - | - |
| 1777629201 | 34.44° C | 72% | 1008.2 hPa | - | - | - | - |
| 1777628301 | 34.44° C | 72% | 1008.2 hPa | - | - | - | - |
| 1777627401 | 35° C | 69% | 1008.2 hPa | - | - | - | - |
| 1777626501 | 35° C | 69% | 1008 hPa | - | - | - | - |
| 1777625611 | 35° C | 69% | 1008 hPa | - | - | - | - |
| 1777624711 | 35° C | 69% | 1008 hPa | - | - | - | - |
| 1777623811 | 35° C | 67% | 1007.9 hPa | - | - | - | - |
| 1777622911 | 35° C | 68% | 1007.9 hPa | - | - | - | - |
| 1777622011 | 35° C | 68% | 1008.4 hPa | - | - | - | - |
| 1777621110 | 35.56° C | 66% | 1008.4 hPa | - | - | - | - |
| 1777620209 | 35° C | 65% | 1008.6 hPa | - | - | - | - |
| 1777619309 | 35.56° C | 65% | 1008.8 hPa | - | - | - | - |
| 1777618409 | 35° C | 69% | 1009 hPa | - | - | - | - |
| 1777617509 | 35° C | 67% | 1009.2 hPa | - | - | - | - |
| 1777616609 | 35° C | 68% | 1009.3 hPa | - | - | - | - |
| 1777615709 | 35° C | 67% | 1009.6 hPa | - | - | - | - |
| 1777614809 | 35° C | 70% | 1009.8 hPa | - | - | - | - |
| 1777613909 | 35° C | 71% | 1009.9 hPa | - | - | - | - |
| 1777613009 | 34.44° C | 75% | 1010.2 hPa | - | - | - | - |
| 1777612109 | 34.44° C | 74% | 1010.4 hPa | - | - | - | - |
| 1777611209 | 35° C | 71% | 1010.6 hPa | - | - | - | - |
| 1777610308 | 34.44° C | 75% | 1011.1 hPa | - | - | - | - |
| 1777609408 | 33.89° C | 79% | 1011.2 hPa | - | - | - | - |
| 1777608508 | 33.89° C | 79% | 1011.3 hPa | - | - | - | - |
* Rain since midnight (hover to see other rain measurements)
** Current wind speed in m/s (hover to see current wind gust speed)